Regional Weather Roundup
Issued by NWS

Home | Current Version | Previous Version | Graphics & Text | Print | Product List | Glossary On
Versions: 1 2 3 4 5 6 7 8 9 10 11 12 13 14 15 16 17 18 19 20 21 22 23 24 25 26
000
ASUS45 KTFX 162310
RWRMT
MONTANA REGIONAL WEATHER ROUNDUP
NATIONAL WEATHER SERVICE GREAT FALLS MT
400 PM MST FRI FEB 16 2018

NOTE: "FAIR" INDICATES FEW OR NO CLOUDS BELOW 12000 FEET WITH NO
SIGNIFICANT WEATHER AND/OR OBSTRUCTIONS TO VISIBILITY.

MTZ001>007-043-170000-
WEST OF THE DIVIDE

CITY           SKY/WX    TMP DP  RH WIND       PRES   REMARKS
KALISPELL      LGT SNOW  31  30  96 S9        29.84R FOG     WCI  23
MISSOULA       CLOUDY    35  24  64 N5        29.87S
BUTTE          CLOUDY    30  12  47 W16G24    29.81F WCI  19
MULLAN PASS    HVY SNOW  21  20  96 NW9       29.79R VSB<1/4 WCI  11
ANACONDA         N/A     30  18  59 MISG      29.82
DEER LODGE       N/A     34  16  47 SW6       29.83S WCI  29
EUREKA           N/A     36  27  69 MISG      29.85R
HAMILTON         N/A     34  25  69 MISG      29.88F
PLAINS           N/A     34  24  67 CALM      29.90
RONAN            N/A     34  25  69 VRB5      29.87S
$$

MTZ008-052>055-170000-
SOUTHWEST MONTANA

CITY           SKY/WX    TMP DP  RH WIND       PRES   REMARKS
BOZEMAN        CLOUDY    33  15  47 SW15      29.85F WCI  23
DILLON         CLOUDY    26  12  55 SW18      29.85F WCI  13
ENNIS          CLOUDY    28  12  50 S23       29.92S WCI  14
W YELLOWSTONE  LGT SNOW  19  14  79 SW20G29   29.88F VSB 1   WCI   4
THREE FORKS      N/A     33  19  56 S17       29.85F WCI  22
TWIN BRIDGES     N/A     33   9  37 S3        29.86
$$

MTZ009-010-012-014-046-048-049-054-170000-
EAST SLOPES AND CENTRAL MONTANA

CITY           SKY/WX    TMP DP  RH WIND       PRES   REMARKS
CUT BANK       CLOUDY    29  22  75 W12       29.72S WCI  19
GREAT FALLS    FAIR      31  20  63 SW21      29.75F WCI  18
MALMSTROM AFB  PTSUNNY   33  22  64 SW25      29.76F WCI  20
HELENA         CLOUDY    31  23  72 E7        29.83F WCI  24
AUGUSTA        FAIR      27  20  75 SW18      29.73F WCI  14
BOWMANS CRNR   FAIR      28  20  74 SW18      29.73F WCI  15
FAIRFIELD      PTSUNNY   31  18  58 SW14      29.73F WCI  21
POWER          PTSUNNY   30  21  67 SW13      29.74S WCI  20
RAYNESFORD     PTSUNNY   33  17  53 W24G35    29.75S WCI  20
ULM            FAIR      31  22  68 SW24      29.76F WCI  17
WHITE SULPHUR    N/A     25  19  80 S14       29.78F WCI  13
$$

MTZ011-013-016-021-045-047-050-051-170000-
NORTH CENTRAL MONTANA

CITY           SKY/WX    TMP DP  RH WIND       PRES   REMARKS
HAVRE          FAIR      28  24  85 SW14      29.75S WCI  17
LEWISTOWN      CLOUDY    28  21  75 W18       29.75S WCI  15
N BAR RANCH    FAIR      32  12  43 W13G23    29.75S WCI  22
CHINOOK          N/A     32  25  74 NW8       29.75F WCI  25
GEYSER         PTSUNNY   30  18  60 W26       29.73S WCI  16
STANFORD       FAIR      29  17  61 W23G31    29.73R WCI  15
WINIFRED       PTSUNNY   28  22  78 N6        29.74R WCI  22
$$

MTZ017>020-022>027-061-062-170000-
NORTHEAST MONTANA

CITY           SKY/WX    TMP DP  RH WIND       PRES   REMARKS
GLASGOW        PTSUNNY   24  16  71 SW7       29.77F WCI  16
GLENDIVE       PTSUNNY   26  22  84 W17       29.80F WCI  13
JORDAN           N/A     28  25  88 W9        29.80S WCI  19
MALTA          SUNNY     18  14  86 SW9       29.76F WCI   6
SIDNEY         FAIR      28  19  69 W10       29.80S WCI  19
WOLF POINT     CLOUDY    24  15  68 SW9       29.80F WCI  14
PLENTYWOOD       N/A     25  16  68 W12       29.73S WCI  14
POPLAR           N/A     23  16  74 W9        29.79F WCI  13
SCOBEY           N/A     21  10  62 W8        29.74  WCI  11
$$

MTZ028>42-056>058-170000-
SOUTHCENTRAL AND SOUTHEAST MONTANA

CITY           SKY/WX    TMP DP  RH WIND       PRES   REMARKS
BAKER          CLOUDY    24  16  71 W12       29.83S WCI  13
BILLINGS       CLOUDY    30  17  58 SW10G18   29.81F WCI  21
LIVINGSTON     CLOUDY    32  15  49 SW35G45   29.80S WCI  17
MILES CITY     CLOUDY    27  20  75 W10       29.84F WCI  17
BIG TIMBER     MOSUNNY   32  14  47 W22G30    29.82F WCI  19
EKALAKA          N/A     25   9  50 SW14      29.81F WCI  13
FORSYTH          N/A     34  18  51 W10       29.84S WCI  26
HARLOWTON      FAIR      30  18  60 W31       29.77F WCI  15
LAUREL           N/A     30  18  59 SW10      29.84F WCI  21
$$

REGIONAL REPORTS...DAKOTAS

CITY           SKY/WX    TMP DP  RH WIND       PRES   REMARKS
WILLISTON      CLOUDY    25  16  68 W15       29.77F WCI  13
MINOT          FAIR      26  15  63 SW17      29.72F WCI  13
DICKINSON      CLOUDY    26  15  63 SW12      29.79S WCI  16
BEACH          FAIR      23  16  74 W16G23    29.83S WCI  10
CROSBY         FAIR      23  16  74 W10       29.73F WCI  12
TIOGA          FAIR      21  18  86 MISG      29.74S
WATFORD CITY   FAIR      27  18  69 W12       29.77S WCI  16
BISMARCK       PTSUNNY   29  15  56 SW15      29.83F WCI  18
GRAND FORKS    MOCLDY    26  17  68 SW20G28   29.82F WCI  12
FARGO          FAIR      27  12  53 S18G29    29.89F WCI  14
BUFFALO SD       N/A     26  17  68 SW14      29.77F WCI  14
RAPID CITY     FAIR      35  21  56 SE12      29.86F WCI  27
$$

REGIONAL REPORTS...WYOMING/IDAHO/WASHINGTON

CITY           SKY/WX    TMP DP  RH WIND       PRES   REMARKS
GILLETTE       CLOUDY    32  18  56 E3        29.83F
SHERIDAN       CLOUDY    28  14  55 CALM      29.83F
BUFFALO WY     FAIR      32   9  38 SE6       29.81F WCI  26
CODY           FAIR      33   7  33 SW17G37   29.84R WCI  22
YELLOWSTONE LA   N/A     15   8  73 VRB7      29.90F WCI   5
IDAHO FALLS    PTSUNNY   30  21  69 SW20G35   30.06F WCI  17
SALMON         PTSUNNY   39  15  37 SW16G26   29.91F WCI  30
BOISE          CLOUDY    40  21  46 CALM      30.18F
SPOKANE        HAIL      34  32  92 NW9       29.97R FOG     WCI  27
$$

REGIONAL REPORTS...ALBERTA

CITY           SKY/WX    TMP DP  RH WIND       PRES   REMARKS
CALGARY        PTSUNNY   25  12  58 N14       29.76R WCI  13
CARDSTON         N/A     32  18  55 NE3         N/A
EDMONTON       SUNNY     18   7  62 N12G17    29.86R WCI   5
FORT MCMURRAY  CLEAR     18  -2  41 W15G23    29.77F WCI   3
HIGH LEVEL     MOSUNNY   16   0  48 NW9G26    29.95S WCI   4
LETHBRIDGE     PTSUNNY   32  18  55 NW10      29.73R WCI  24
LLOYDMINSTER   FLURRIES  18  12  79 NW17G25   29.73R WCI   2
MEDICINE HAT   PTSUNNY   25  14  63 NW13      29.77R WCI  13
MILK RIVER       N/A     30  21  69 W23         N/A  WCI  17
ONEFOUR          N/A     25  19  80 NW12        N/A  WCI  14
PEACE RIVER    PTSUNNY   16   0  48 NW17      30.01R WCI   0
PINCHER CREEK  PTSUNNY   30  16  55 W14       29.72R WCI  20
WATERTON GATE    N/A     32  14  47 W24G35      N/A  WCI  19
$$

REGIONAL REPORTS...SASKATCHEWAN

CITY           SKY/WX    TMP DP  RH WIND       PRES   REMARKS
CYPRESS HILLS    N/A     23   9  54 NW8         N/A  WCI  14
ESTEVAN        PTSUNNY   23  14  68 W8        29.70F WCI  14
MOOSE JAW        N/A     25  18  74 NW13        N/A  WCI  13
PRINCE ALBERT  CLOUDY    14   3  62 W12       29.70S WCI   0
REGINA         PTSUNNY   23  16  74 W15       29.69F WCI  10
ROCKGLEN         N/A     18  10  73 W10         N/A  WCI   6
SASKATOON      CLOUDY    18   9  68 NW15G23   29.72R WCI   3
SWIFT CURRENT  SUNNY     25  16  68 W14G20    29.68S WCI  13
VAL MARIE        N/A     19  12  73 NW3         N/A
$$




USA.gov is the U.S. government's official web portal to all federal, state and local government web resources and services.